Preview of NWS' New Version of Forecast
This preview is not operational and should not be used for support decisions.

Regional Weather Roundup (RWR)

Issued by Gray - Portland, ME (GYX)

                            
205 
ASUS41 KGYX 260705
RWRGYX
WEATHER ROUNDUP FOR MAINE AND NEW HAMPSHIRE
NATIONAL WEATHER SERVICE GRAY ME
300 AM EDT SAT MAY 26 2018

MEZ002-005-006-010-012-015-018-020-021-024-026-027-029-260800-
MAINE
  
CITY           SKY/WX    TMP DP  RH WIND       PRES   REMARKS
PORTLAND       FAIR      72  55  55 VRB6      29.67S                  
SANFORD        FAIR      60  55  83 CALM      29.69S                  
BAR HARBOR     MOCLDY    66  54  65 SW8       29.61F                  
WISCASSET      MOCLDY    69  59  70 W3        29.66F                  
ROCKLAND       CLOUDY    66  59  78 SW6       29.63F                  
FRYEBURG       CLOUDY    67  58  72 W6        29.69F                  
LEWISTONAUBURN FAIR      71  55  56 VRB6      29.66F                  
AUGUSTA        FAIR      71  55  56 W10G18    29.64S                  
WATERVILLE     FAIR      68  58  70 CALM      29.61S                  
BANGOR         CLOUDY    66  59  78 SW3       29.60F                  
GREENVILLE       N/A     62  59  90 VRB6      29.61F                  
MILLINOCKET    CLOUDY    63  59  87 VRB3      29.58F                  
HOULTON        CLOUDY    62  59  90 SW6       29.54F                  
PRESQUE ISLE   FOG       56  56 100 CALM      29.56S VSB 3/4          
FRENCHVILLE    CLOUDY    57  43  59 N7        29.57S                  
CARIBOU        CLOUDY    59  57  93 N6        29.55S FOG              
$$

NHZ002-005-008-009-011-012-014-260800-
NEW HAMPSHIRE
  
CITY           SKY/WX    TMP DP  RH WIND       PRES   REMARKS
PORTSMOUTH     MOCLDY    68  52  55 CALM      29.67F                  
ROCHESTER      FAIR      68  53  58 CALM      29.68F                  
NASHUA         FAIR      71  54  54 VRB3      29.71F                  
MANCHESTER     FAIR      73  51  46 S7        29.69F                  
CONCORD        FAIR      62  53  72 CALM      29.70F                  
LACONIA        FAIR      61  57  87 CALM      29.71S                  
PLYMOUTH       MOCLDY    59  58  94 CALM      29.71S                  
BERLIN         CLOUDY    65  57  75 SE5       29.70F                  
WHITEFIELD     CLOUDY    62  60  93 CALM      29.71F                  
JAFFREY        FAIR      68  53  58 S7        29.76F                  
KEENE          FAIR      62  54  74 CALM      29.74F                  
LEBANON        FAIR      62  55  77 S8        29.70F                  
MT WASHINGTON  LGT RAIN  46  46 100 W52         N/A  VSB 0            
$$

VTZ005-007-008-260800-
VERMONT
  
CITY           SKY/WX    TMP DP  RH WIND       PRES   REMARKS
ST JOHNSBURY     N/A     63  60  90 MISG      29.69S                  
MONTPELIER     CLOUDY    62  60  93 N3        29.75F                  
BURLINGTON     MOCLDY    64  61  90 CALM      29.68F                  
$$

MAZ007-012-024-CTZ003-RIZ002-NYZ038-NYZ072-260800-
SOUTHERN NEW ENGLAND AND NY
  
CITY           SKY/WX    TMP DP  RH WIND       PRES   REMARKS
BOSTON         FAIR      72  57  59 SW13      29.71F                  
WORCESTER      FAIR      67  54  63 W13       29.77F                  
NANTUCKET      FAIR      57  55  93 SW18      29.81S                  
PROVIDENCE     FAIR      69  59  70 SW10G20   29.77F                  
HARTFORD       FAIR      64  59  83 SE7       29.76F                  
ALBANY         FAIR      63  52  67 SW3       29.76F                  
NEW YORK CITY  FAIR      76  63  64 SW10      29.82S                  
$$

ANZ081-ANZ082-ANZ150-NHZ014-MEZ023>029-260800-
COASTAL MARINE OBSERVATIONS
  
STATION/POSITION TIME  TEMP    WIND        PRES    WAVE
                       AIR SEA DIR/SP/G            HT/PER
                 (UTC) (F)     (DEG/KT/KT) (MB)    (FT/S)
MOUNT DESERT ROC 0600   54     240/ 17/ 18 1003.5S
MATINICUS ROCK   0600   63     250/ 20/ 20 1003.7R
ISLE OF SHOALS   0600   74     230/ 17/ 18 1004.8F
JEFFREYS LEDGE   0636      54                N/A     3/ 6
CASHES LEDGE BUO 0650   56 51              1004.9    4/ 6
$$

.............KEY..............
   WCI - WIND CHILL
   TC  - TEMPERATURE IN CELSIUS
   VSB - VISIBILITY IN MILES
   HX  - HEAT INDEX
   FAIR- INDICATES FEW OR NO CLOUDS BELOW 12,000 FT, WITH NO 
         SIGNIFICANT WEATHER AND/OR OBSTRUCTIONS TO VISIBILITY.